Back to catalog

STARLINK-32596

AliveCommunicationsVLEO
NORAD 62316·PAYLOAD·🇺🇸 United States

Launched Dec 13, 2024 from Vandenberg Space Force Base

Loading…

Next Passes (next 24 hours)

TLE

FreshSource: CelesTrak SupGP

Epoch: Sep 14, 2026, 22:31 UTC

1 62316C 24239R   26257.93868056  .00013649  00000+0  40333-3 0  2570
2 62316  53.1599  31.4063 0001100  73.0647  75.5135 15.34377897    19

Track STARLINK-32596 in real time with AllMySat

Download on the App Store